Regional Weather Roundup
Issued by NWS

Home | Current Version | Previous Version | Graphics & Text | Print | Product List | Glossary Off
Versions: 1 2 3 4 5 6 7 8 9 10 11 12 13 14 15 16 17 18 19 20 21 22 23 24 25 26 27 28 29 30 31 32 33 34 35 36 37 38 39 40 41 42 43 44 45 46 47 48 49 50

000
ASUS43 KTOP 221659
RWRKS

WEATHER ROUNDUP FOR KANSAS
NATIONAL WEATHER SERVICE GOODLAND KS
1200 PM CDT SUN APR 22 2018

NOTE:  "FAIR" INDICATES FEW OR NO CLOUDS BELOW 12,000 FEET WITH NO
SIGNIFICANT WEATHER AND/OR OBSTRUCTIONS TO VISIBILITY.

KSZ001>006-013>018-027>032-041>047-221800-
NORTHWEST KANSAS

CITY           SKY/WX    TMP DP  RH WIND       PRES   REMARKS
GOODLAND       CLOUDY    47  35  63 NE7       30.22S
HAYS           SUNNY     54  40  59 N17       30.22F
HILL CITY      MOSUNNY   51  41  68 N9        30.25S
RUSSELL        PTSUNNY   56  41  57 N21G30    30.19F
$$

KSZ061>065-074>080-084>089-221800-
SOUTHWEST KANSAS

CITY           SKY/WX    TMP DP  RH WIND       PRES   REMARKS
DODGE CITY     PTSUNNY   52  40  63 N15       30.21S
GARDEN CITY    PTSUNNY   49  39  68 N14       30.22S
GREAT BEND     CLOUDY    53  41  63 N22G28    30.20F
LIBERAL        CLOUDY    51  37  58 N16       30.22F
$$

KSZ066>073-081>083-090>101-221800-
SOUTHEAST KANSAS

CITY           SKY/WX    TMP DP  RH WIND       PRES   REMARKS
CHANUTE        LGT RAIN  50  48  93 N12       30.06R
COFFEYVILLE    CLOUDY    53  50  89 N17       30.02S
HUTCHINSON     CLOUDY    52  41  66 N17       30.16R
MEDICINE LODGE   N/A     53  40  61 N22G30    30.15S
NEWTON         CLOUDY    52  42  69 N15G22    30.14R
PARSONS        LGT RAIN  50  49  96 N13G18    30.04S
WICHITA INTL   CLOUDY    50  43  77 N16       30.13R
WICHITA JABRA  CLOUDY    51  44  77 NW18      30.11F
WINFIELD       CLOUDY    53  47  79 N22       30.09F
$$

KSZ007>012-019>026-033>040-048>060-102>105-221800-
NORTHEAST KANSAS

CITY           SKY/WX    TMP DP  RH WIND       PRES   REMARKS
CONCORDIA      CLOUDY    56  40  55 N13       30.19F
EMPORIA        LGT RAIN  49  44  83 N13       30.11R
LAWRENCE       LGT RAIN  51  46  83 NE13      30.13S
MANHATTAN      CLOUDY    57  39  51 NE10      30.16S
OLATHE IND     LGT RAIN  49  47  93 NE14      30.12S
OLATHE EXE     CLOUDY    48  46  93 NE15G23   30.11S
SALINA         MOSUNNY   56  43  61 N12       30.19R
TOPEKA BILLARD LGT RAIN  52  44  74 NE9       30.14S
TOPEKA FORBES  LGT RAIN  50  45  83 N9        30.13S
$$




USA.gov is the U.S. government's official web portal to all federal, state and local government web resources and services.